CDT,Max TemperatureF,Mean TemperatureF,Min TemperatureF,Max Dew PointF,MeanDew PointF,Min DewpointF,Max Humidity, Mean Humidity, Min Humidity, Max Sea Level PressureIn, Mean Sea Level PressureIn, Min Sea Level PressureIn, Max VisibilityMiles, Mean VisibilityMiles, Min VisibilityMiles, Max Wind SpeedMPH, Mean Wind SpeedMPH, Max Gust SpeedMPH,PrecipitationIn, CloudCover, Events, WindDirDegrees
2013-3-1,33,30,25,25,22,19,88,74,60,30.28,30.22,30.16,10,9,4,16,9,21,0.00,8,Snow,325
2013-3-2,39,31,23,23,21,18,93,74,45,30.34,30.29,30.22,10,9,5,15,8,17,0.00,4,Snow,327
2013-3-3,55,39,23,32,26,19,85,59,37,30.21,30.00,29.77,10,10,10,18,6,23,0.00,1,,171
2013-3-4,64,54,42,46,40,32,86,62,48,29.85,29.67,29.59,10,10,10,21,11,25,0.00,1,,175
2013-3-5,43,36,30,37,27,20,100,70,43,30.33,30.15,29.93,10,9,4,23,15,33,0.11,3,Rain,321
2013-3-6,48,34,21,28,21,17,88,62,35,30.43,30.34,30.25,10,10,10,13,7,,0.00,0,,6
2013-3-7,61,48,35,31,27,23,70,50,24,30.27,30.21,30.14,10,10,10,14,5,24,0.00,0,,151
2013-3-8,59,49,39,39,35,31,73,56,42,30.24,30.16,30.03,10,10,10,18,9,25,0.00,4,Rain,136
2013-3-9,66,58,50,58,50,37,100,78,47,30.03,29.80,29.69,10,7,2,21,13,29,1.40,6,Rain-Thunderstorm,168
2013-3-10,55,42,28,55,40,27,100,98,89,29.96,29.77,29.66,10,7,2,25,12,33,0.56,8,Rain,244
2013-3-11,45,35,26,28,25,20,100,75,41,30.05,29.97,29.91,10,10,7,15,12,22,0.00,4,,282
2013-3-12,55,42,28,29,26,20,88,57,31,30.33,30.18,30.04,10,10,10,14,6,23,0.00,3,,299
2013-3-13,51,38,25,24,20,16,85,52,28,30.48,30.41,30.33,10,10,10,8,4,,0.00,1,,344
2013-3-14,70,50,30,41,32,20,76,50,34,30.35,30.22,30.11,10,10,10,22,6,30,0.00,0,,201
2013-3-15,77,62,48,47,45,42,80,51,31,30.10,29.92,29.77,10,10,10,21,11,32,0.00,0,,211
2013-3-16,73,62,51,50,45,40,77,56,44,29.83,29.79,29.73,10,10,8,17,11,25,0.00,2,,176
2013-3-17,48,44,39,45,43,39,100,96,71,29.87,29.75,29.67,10,4,1,20,10,24,0.18,8,Rain,60
2013-3-18,55,46,35,45,39,29,100,86,43,30.06,29.85,29.69,10,8,2,17,7,22,0.01,6,Rain,314
2013-3-19,55,42,30,31,26,19,89,56,25,30.26,30.15,30.04,10,10,9,14,4,23,0.00,1,,47
2013-3-20,46,38,30,32,23,16,89,60,30,30.37,30.25,30.12,10,10,10,20,5,26,0.00,1,,342
2013-3-21,41,36,30,34,26,11,100,77,31,30.07,29.91,29.80,10,7,1,17,9,24,0.19,7,Rain-Snow,101
2013-3-22,39,36,32,33,32,31,100,86,73,29.94,29.87,29.81,10,8,3,13,9,21,0.29,8,Rain,71
2013-3-23,39,37,35,33,31,28,89,77,65,29.91,29.82,29.70,8,4,1,14,8,,0.00,8,,69
2013-3-24,39,32,26,39,29,21,100,88,61,30.14,29.82,29.63,10,5,2,24,10,34,0.03,8,Rain-Snow,299
2013-3-25,34,28,23,25,22,19,88,78,61,30.36,30.23,30.12,10,10,2,17,11,25,0.00,5,,305
2013-3-26,44,32,21,25,22,19,100,71,43,30.45,30.38,30.32,10,10,10,12,6,16,0.00,1,,311
2013-3-27,59,42,24,32,27,21,92,58,28,30.33,30.25,30.16,10,9,2,14,5,23,0.00,1,,149
2013-3-28,68,54,41,49,42,30,83,63,51,30.21,30.17,30.11,10,10,9,17,6,23,0.00,3,,175
2013-3-29,66,57,50,57,53,48,100,93,73,30.21,30.14,30.09,10,8,2,10,5,,0.44,7,Rain-Thunderstorm,130
2013-3-30,66,59,52,58,55,52,100,95,73,30.12,29.99,29.88,10,8,2,25,7,33,0.71,5,Rain-Thunderstorm,166
2013-3-31,68,58,48,54,49,41,100,86,37,29.98,29.92,29.86,10,6,0,25,4,41,0.03,4,Fog-Rain,330